GW4137 Weather Reports


time (UTC)temp
F
wind
direction
speed
knots
gust
knots
rain 1hr
in
rain 24hr
in
rain mn
in
humidity
%
barometer
mb
20260507060054 55 47 13.9 19.1 0.00 0.00 0.00 34 1008.3
20260507054555 57 55 9.6 13.0 0.00 0.00 0.00 33 1007.8
20260507053055 58 61 4.3 7.0 0.00 0.00 0.00 39 1007.2
20260507051554 57 159 0.9 4.3 0.00 0.00 0.00 41 1007.0
20260507050055 57 0 0.0 0.0 0.00 0.00 0.00 41 1006.8
20260507044553 58 0 0.9 3.5 0.00 0.00 0.00 40 1006.8
20260507043053 59 0 1.7 4.3 0.00 0.00 0.00 39 1006.7
20260507041550 59 159 2.6 5.2 0.00 0.00 0.00 38 1006.7
20260507040100 60 159 2.6 5.2 0.00 0.00 0.00 38 1006.8
20260507034552 61 159 2.6 6.1 0.00 0.00 0.00 36 1006.8
20260507033101 62 159 3.5 6.1 0.00 0.00 0.00 34 1006.7
20260507031557 64 159 5.2 11.3 0.00 0.00 0.00 32 1006.8
20260507030052 65 310 13.0 21.7 0.00 0.00 0.00 33 1007.4
20260507024551 66 351 0.9 7.0 0.00 0.00 0.00 24 1006.9
20260507023055 64 340 0.0 2.6 0.00 0.00 0.00 25 1006.7
20260507021556 66 0 0.0 0.0 0.00 0.00 0.00 22 1006.4
20260507020053 67 0 0.0 0.0 0.00 0.00 0.00 21 1006.2
20260507014557 68 0 0.0 5.2 0.00 0.00 0.00 21 1006.1
20260507013109 69 0 0.9 4.3 0.00 0.00 0.00 21 1006.2
20260507011603 69 339 5.2 10.4 0.00 0.00 0.00 20 1006.4
20260507010108 69 323 5.2 14.8 0.00 0.00 0.00 20 1006.4
20260507004555 71 324 10.4 15.6 0.00 0.00 0.00 19 1006.6
20260507003056 72 352 12.2 16.5 0.00 0.00 0.00 19 1006.5
20260507001555 73 320 9.6 21.7 0.00 0.00 0.00 19 1006.7
20260507000100 72 325 12.2 20.9 0.00 0.00 0.00 19 1006.7
20260506234554 72 350 9.6 16.5 0.00 0.00 0.00 19 1006.6
20260506233105 72 325 7.0 15.6 0.00 0.00 0.00 19 1006.7
20260506231555 72 293 4.3 8.7 0.00 0.00 0.00 20 1006.8
20260506230050 71 280 0.0 9.6 0.00 0.00 0.00 21 1007.1
20260506224558 71 5 2.6 10.4 0.00 0.00 0.00 20 1007.3
20260506223054 70 14 2.6 7.8 0.00 0.00 0.00 21 1007.5
20260506221557 69 236 0.0 6.1 0.00 0.00 0.00 21 1007.6
20260506220052 69 266 5.2 10.4 0.00 0.00 0.00 20 1008.0
20260506214555 68 293 1.7 7.8 0.00 0.00 0.00 21 1008.4
20260506213054 68 287 6.1 11.3 0.00 0.00 0.00 21 1008.5
20260506211608 66 0 0.9 8.7 0.00 0.00 0.00 22 1008.8
20260506210054 66 11 5.2 17.4 0.00 0.00 0.00 22 1009.1
20260506204556 65 302 4.3 12.2 0.00 0.00 0.00 23 1009.4
20260506203054 65 312 5.2 11.3 0.00 0.00 0.00 22 1009.6
20260506201554 63 254 1.7 12.2 0.00 0.00 0.00 24 1009.8
20260506200055 64 250 7.8 18.2 0.00 0.00 0.00 23 1010.0
20260506194555 64 250 8.7 15.6 0.00 0.00 0.00 23 1010.4
20260506193055 61 0 7.8 13.9 0.00 0.00 0.00 24 1010.5
20260506191554 61 209 2.6 10.4 0.00 0.00 0.00 25 1010.9
20260506190055 60 211 7.8 22.6 0.00 0.00 0.00 24 1011.3
20260506184604 59 294 5.2 15.6 0.00 0.00 0.00 26 1011.5
20260506183056 58 257 7.8 14.8 0.00 0.00 0.00 26 1011.8
20260506181556 56 194 4.3 15.6 0.00 0.00 0.00 26 1012.1
20260506180057 55 179 4.3 12.2 0.00 0.00 0.00 26 1012.3
20260506174552 55 221 7.0 14.8 0.00 0.00 0.00 27 1012.7
20260506173104 54 155 4.3 13.9 0.00 0.00 0.00 29 1012.9
20260506171602 52 205 6.1 13.0 0.00 0.00 0.00 32 1013.2
20260506170103 51 183 7.0 11.3 0.00 0.00 0.00 35 1013.6
20260506164618 51 207 5.2 13.0 0.00 0.00 0.00 31 1013.7
20260506163107 50 213 7.0 12.2 0.00 0.00 0.00 37 1013.8
20260506161557 48 209 6.1 11.3 0.00 0.00 0.00 42 1014.0
20260506160111 47 180 7.0 10.4 0.00 0.00 0.00 44 1014.3
20260506154555 45 183 5.2 10.4 0.00 0.00 0.00 49 1014.6
20260506153101 43 182 5.2 9.6 0.00 0.00 0.00 52 1014.9
20260506151553 42 196 5.2 8.7 0.00 0.00 0.00 53 1015.1
20260506150053 41 205 3.5 7.0 0.00 0.00 0.00 56 1015.2
20260506144552 39 207 2.6 8.7 0.00 0.00 0.00 60 1015.2
20260506143056 38 352 3.5 8.7 0.00 0.00 0.00 60 1015.4
20260506141609 37 19 1.7 6.1 0.00 0.00 0.00 61 1015.6
20260506140055 35 0 0.9 3.5 0.00 0.00 0.00 62 1015.6
20260506134554 33 360 0.0 2.6 0.00 0.00 0.00 62 1015.7
20260506133105 31 0 0.0 0.0 0.00 0.00 0.00 62 1015.8
20260506131555 27 0 0.0 0.0 0.00 0.00 0.00 64 1015.9
20260506130056 24 0 0.0 0.0 0.00 0.00 0.00 66 1015.9
20260506124550 22 0 0.0 0.9 0.00 0.00 0.00 68 1015.9
20260506123053 20 0 0.0 0.0 0.00 0.00 0.00 70 1016.0
20260506121614 19 360 0.9 3.5 0.00 0.00 0.00 69 1016.0
20260506120120 19 360 2.6 3.5 0.00 0.00 0.00 69 1016.2
20260506114557 19 360 2.6 3.5 0.00 0.00 0.00 69 1016.2
20260506113109 19 0 0.0 1.7 0.00 0.00 0.00 68 1016.3
20260506111552 19 0 0.0 3.5 0.00 0.00 0.00 68 1016.5
20260506110058 18 360 0.0 1.7 0.00 0.00 0.00 69 1016.8
20260506104553 19 0 0.0 2.6 0.00 0.00 0.00 67 1017.0
20260506103056 20 360 2.6 4.3 0.00 0.00 0.00 66 1017.0
20260506101555 19 360 1.7 3.5 0.00 0.00 0.00 67 1017.1
20260506100058 20 360 2.6 3.5 0.00 0.00 0.00 66 1017.4
20260506094557 20 360 1.7 3.5 0.00 0.00 0.00 66 1017.4
20260506093056 20 360 0.9 3.5 0.00 0.00 0.00 66 1017.6
20260506091554 21 360 1.7 2.6 0.00 0.00 0.00 66 1017.7
20260506090052 21 360 0.0 1.7 0.00 0.00 0.00 66 1017.8
20260506084550 22 0 0.0 0.0 0.00 0.00 0.00 65 1017.9
20260506083051 22 0 0.0 2.6 0.00 0.00 0.00 64 1018.0
20260506081553 23 0 0.0 0.0 0.00 0.00 0.00 64 1018.2
20260506073100 24 0 0.0 2.6 0.00 0.00 0.00 61 1018.5
20260506071555 26 0 0.0 2.6 0.00 0.00 0.00 59 1018.5
20260506070114 27 16 1.7 3.5 0.00 0.00 0.00 59 1018.6
20260506061602 28 16 1.7 2.6 0.00 0.00 0.00 56 1018.5